| time (UTC) | temp F | wind direction | speed knots | gust knots | rain 1hr in | rain 24hr in | rain mn in | humidity % | barometer mb |
| 20260507234849 | 64 | 56 | 0.9 | 2.6 | 0.00 | 0.01 | 0.01 | 74 | 1017.3 |
| 20260507234527 | 63 | 87 | 0.9 | 2.6 | 0.00 | 0.01 | 0.01 | 73 | 1016.7 |
| 20260507234325 | 64 | 77 | 1.7 | 2.6 | 0.00 | 0.01 | 0.01 | 73 | 1017.2 |
| 20260507234010 | 63 | 64 | 0.0 | 1.7 | 0.00 | 0.01 | 0.01 | 74 | 1016.7 |
| 20260507233822 | 64 | 64 | 0.0 | 1.7 | 0.00 | 0.01 | 0.01 | 74 | 1017.3 |
| 20260507233502 | 63 | 64 | 0.0 | 3.5 | 0.00 | 0.01 | 0.01 | 74 | 1016.8 |
| 20260507233317 | 64 | 64 | 0.9 | 3.5 | 0.00 | 0.01 | 0.01 | 73 | 1017.4 |
| 20260507233054 | 63 | 60 | 0.9 | 6.1 | 0.00 | 0.01 | 0.01 | 73 | 1016.7 |
| 20260507232832 | 64 | 60 | 0.9 | 6.1 | 0.00 | 0.01 | 0.01 | 73 | 1017.4 |
| 20260507232545 | 63 | 81 | 1.7 | 6.1 | 0.00 | 0.01 | 0.01 | 73 | 1016.5 |
| 20260507232349 | 64 | 102 | 2.6 | 6.1 | 0.00 | 0.01 | 0.01 | 72 | 1017.1 |
| 20260507232015 | 63 | 89 | 1.7 | 3.5 | 0.00 | 0.01 | 0.01 | 72 | 1016.7 |
| 20260507231823 | 64 | 46 | 2.6 | 3.5 | 0.00 | 0.01 | 0.01 | 72 | 1017.3 |
| 20260507231503 | 63 | 109 | 0.9 | 3.5 | 0.00 | 0.01 | 0.01 | 73 | 1016.8 |
| 20260507231318 | 64 | 137 | 0.9 | 6.1 | 0.00 | 0.01 | 0.01 | 72 | 1017.4 |
| 20260507231058 | 64 | 116 | 0.0 | 6.1 | 0.00 | 0.01 | 0.01 | 73 | 1016.6 |
| 20260507230854 | 64 | 27 | 1.7 | 6.1 | 0.00 | 0.01 | 0.01 | 73 | 1017.2 |
| 20260507230533 | 63 | 76 | 2.6 | 6.1 | 0.00 | 0.01 | 0.01 | 72 | 1016.4 |
| 20260507230329 | 64 | 78 | 3.5 | 5.2 | 0.00 | 0.01 | 0.01 | 72 | 1017.1 |
| 20260507230055 | 63 | 83 | 2.6 | 5.2 | 0.00 | 0.01 | 0.01 | 73 | 1016.6 |
| 20260507225823 | 64 | 50 | 2.6 | 4.3 | 0.00 | 0.01 | 0.01 | 73 | 1017.1 |
| 20260507225546 | 63 | 74 | 1.7 | 4.3 | 0.00 | 0.01 | 0.01 | 72 | 1016.7 |
| 20260507225321 | 64 | 89 | 1.7 | 4.3 | 0.00 | 0.01 | 0.01 | 72 | 1017.7 |
| 20260507225038 | 63 | 34 | 1.7 | 4.3 | 0.00 | 0.01 | 0.01 | 72 | 1017.0 |
| 20260507224817 | 64 | 43 | 1.7 | 5.2 | 0.00 | 0.01 | 0.01 | 73 | 1017.6 |
| 20260507224550 | 63 | 124 | 2.6 | 6.1 | 0.00 | 0.01 | 0.01 | 73 | 1016.9 |
| 20260507224353 | 64 | 64 | 2.6 | 6.1 | 0.00 | 0.01 | 0.01 | 73 | 1017.6 |
| 20260507224057 | 63 | 50 | 2.6 | 6.1 | 0.00 | 0.01 | 0.01 | 73 | 1017.1 |
| 20260507223829 | 64 | 52 | 2.6 | 3.5 | 0.00 | 0.01 | 0.01 | 73 | 1017.7 |
| 20260507223548 | 63 | 108 | 0.9 | 4.3 | 0.00 | 0.01 | 0.01 | 74 | 1016.9 |
| 20260507223343 | 63 | 107 | 1.7 | 6.1 | 0.00 | 0.01 | 0.01 | 73 | 1017.6 |
| 20260507223022 | 63 | 110 | 1.7 | 6.1 | 0.00 | 0.01 | 0.01 | 73 | 1016.9 |
| 20260507222840 | 63 | 152 | 2.6 | 6.1 | 0.00 | 0.01 | 0.01 | 73 | 1017.5 |
| 20260507222552 | 63 | 135 | 0.9 | 5.2 | 0.00 | 0.01 | 0.01 | 74 | 1016.7 |
| 20260507222315 | 63 | 139 | 0.9 | 4.3 | 0.00 | 0.01 | 0.01 | 74 | 1017.2 |
| 20260507222043 | 63 | 52 | 1.7 | 4.3 | 0.00 | 0.01 | 0.01 | 74 | 1016.8 |
| 20260507221830 | 63 | 54 | 1.7 | 5.2 | 0.00 | 0.01 | 0.01 | 74 | 1017.6 |
| 20260507221538 | 63 | 117 | 0.9 | 5.2 | 0.00 | 0.01 | 0.01 | 73 | 1017.2 |
| 20260507221325 | 63 | 117 | 0.9 | 5.2 | 0.00 | 0.01 | 0.01 | 73 | 1017.8 |
| 20260507221003 | 62 | 62 | 2.6 | 4.3 | 0.00 | 0.01 | 0.01 | 73 | 1017.1 |
| 20260507220821 | 63 | 82 | 1.7 | 6.1 | 0.00 | 0.01 | 0.01 | 73 | 1017.7 |
| 20260507220556 | 62 | 136 | 1.7 | 6.1 | 0.00 | 0.01 | 0.01 | 73 | 1017.2 |
| 20260507220316 | 63 | 66 | 0.9 | 6.1 | 0.00 | 0.01 | 0.01 | 74 | 1017.6 |
| 20260507220047 | 62 | 85 | 3.5 | 6.1 | 0.00 | 0.01 | 0.01 | 74 | 1016.7 |
| 20260507215830 | 63 | 41 | 3.5 | 7.0 | 0.00 | 0.01 | 0.01 | 75 | 1017.6 |
| 20260507215544 | 62 | 63 | 2.6 | 6.1 | 0.00 | 0.01 | 0.01 | 74 | 1017.2 |
| 20260507215326 | 63 | 107 | 2.6 | 6.1 | 0.00 | 0.01 | 0.01 | 74 | 1017.9 |
| 20260507215034 | 62 | 36 | 0.9 | 7.0 | 0.00 | 0.01 | 0.01 | 75 | 1017.5 |
| 20260507214821 | 63 | 77 | 0.9 | 7.0 | 0.00 | 0.01 | 0.01 | 74 | 1018.2 |
| 20260507214530 | 62 | 77 | 3.5 | 8.7 | 0.00 | 0.01 | 0.01 | 73 | 1017.6 |
| 20260507214317 | 63 | 106 | 4.3 | 8.7 | 0.00 | 0.01 | 0.01 | 74 | 1018.1 |
| 20260507214015 | 62 | 100 | 4.3 | 8.7 | 0.00 | 0.01 | 0.01 | 74 | 1017.4 |
| 20260507213852 | 63 | 77 | 3.5 | 8.7 | 0.00 | 0.01 | 0.01 | 76 | 1018.1 |
| 20260507213548 | 62 | 79 | 1.7 | 4.3 | 0.00 | 0.01 | 0.01 | 75 | 1017.5 |
| 20260507213328 | 63 | 62 | 1.7 | 7.0 | 0.00 | 0.01 | 0.01 | 75 | 1018.2 |
| 20260507213041 | 62 | 65 | 1.7 | 8.7 | 0.00 | 0.01 | 0.01 | 75 | 1017.8 |
| 20260507212825 | 63 | 65 | 1.7 | 8.7 | 0.00 | 0.01 | 0.01 | 76 | 1018.5 |
| 20260507212531 | 62 | 77 | 2.6 | 8.7 | 0.00 | 0.01 | 0.01 | 76 | 1017.9 |
| 20260507212342 | 63 | 83 | 3.5 | 8.7 | 0.00 | 0.01 | 0.01 | 76 | 1018.4 |
| 20260507212100 | 62 | 23 | 3.5 | 8.7 | 0.00 | 0.01 | 0.01 | 76 | 1017.8 |
| 20260507211815 | 63 | 54 | 3.5 | 8.7 | 0.00 | 0.01 | 0.01 | 76 | 1018.3 |
| 20260507211608 | 62 | 71 | 3.5 | 8.7 | 0.00 | 0.01 | 0.01 | 77 | 1017.7 |
| 20260507211332 | 62 | 27 | 1.7 | 6.1 | 0.00 | 0.01 | 0.01 | 77 | 1018.3 |
| 20260507211041 | 62 | 82 | 1.7 | 6.1 | 0.00 | 0.01 | 0.01 | 76 | 1017.8 |
| 20260507210829 | 62 | 87 | 2.6 | 4.3 | 0.00 | 0.01 | 0.01 | 76 | 1018.7 |
| 20260507210533 | 62 | 143 | 0.9 | 5.2 | 0.00 | 0.01 | 0.01 | 76 | 1018.4 |
| 20260507210326 | 62 | 143 | 2.6 | 5.2 | 0.00 | 0.01 | 0.01 | 78 | 1018.9 |
| 20260507210031 | 61 | 54 | 1.7 | 7.0 | 0.00 | 0.01 | 0.01 | 78 | 1018.4 |
| 20260507205821 | 62 | 27 | 2.6 | 7.8 | 0.00 | 0.01 | 0.01 | 78 | 1019.1 |
| 20260507205552 | 61 | 346 | 2.6 | 8.7 | 0.00 | 0.01 | 0.01 | 78 | 1018.6 |
| 20260507205317 | 61 | 359 | 3.5 | 8.7 | 0.00 | 0.01 | 0.01 | 77 | 1019.2 |
| 20260507205049 | 61 | 16 | 4.3 | 8.7 | 0.00 | 0.01 | 0.01 | 77 | 1018.6 |
| 20260507204835 | 61 | 10 | 3.5 | 7.8 | 0.00 | 0.01 | 0.01 | 79 | 1019.1 |
| 20260507204517 | 61 | 340 | 2.6 | 5.2 | 0.00 | 0.01 | 0.01 | 80 | 1018.6 |
| 20260507204330 | 61 | 359 | 1.7 | 5.2 | 0.00 | 0.01 | 0.01 | 81 | 1019.0 |
| 20260507204103 | 60 | 70 | 2.6 | 5.2 | 0.00 | 0.01 | 0.01 | 80 | 1018.3 |
| 20260507203826 | 60 | 91 | 2.6 | 6.1 | 0.00 | 0.01 | 0.01 | 81 | 1018.8 |
| 20260507203552 | 60 | 120 | 3.5 | 6.1 | 0.00 | 0.01 | 0.01 | 80 | 1018.2 |
| 20260507203317 | 60 | 93 | 2.6 | 5.2 | 0.00 | 0.01 | 0.01 | 79 | 1019.1 |
| 20260507203044 | 60 | 354 | 1.7 | 3.5 | 0.00 | 0.01 | 0.01 | 81 | 1019.2 |
| 20260507202855 | 60 | 53 | 0.0 | 3.5 | 0.00 | 0.01 | 0.01 | 80 | 1019.8 |
| 20260507202507 | 60 | 53 | 0.9 | 4.3 | 0.01 | 0.01 | 0.01 | 80 | 1019.0 |
| 20260507202330 | 60 | 314 | 1.7 | 4.3 | 0.01 | 0.01 | 0.01 | 80 | 1019.6 |
| 20260507202059 | 60 | 318 | 0.9 | 7.8 | 0.01 | 0.01 | 0.01 | 81 | 1018.8 |
| 20260507201826 | 60 | 359 | 1.7 | 7.8 | 0.01 | 0.01 | 0.01 | 81 | 1019.0 |
| 20260507201604 | 60 | 35 | 2.6 | 7.8 | 0.01 | 0.01 | 0.01 | 82 | 1018.2 |
| 20260507201322 | 60 | 14 | 5.2 | 7.8 | 0.01 | 0.01 | 0.01 | 82 | 1018.9 |
| 20260507201046 | 60 | 354 | 4.3 | 7.8 | 0.01 | 0.01 | 0.01 | 82 | 1018.4 |
| 20260507200817 | 60 | 11 | 2.6 | 10.4 | 0.01 | 0.01 | 0.01 | 83 | 1018.9 |
| 20260507200538 | 59 | 359 | 3.5 | 10.4 | 0.01 | 0.01 | 0.01 | 83 | 1018.1 |
| 20260507200333 | 60 | 4 | 4.3 | 10.4 | 0.01 | 0.01 | 0.01 | 84 | 1018.3 |
| 20260507200031 | 59 | 24 | 6.1 | 10.4 | 0.01 | 0.01 | 0.01 | 84 | 1017.2 |
| 20260507195830 | 60 | 4 | 6.1 | 7.8 | 0.01 | 0.01 | 0.01 | 84 | 1017.6 |
| 20260507195526 | 59 | 4 | 3.5 | 6.1 | 0.01 | 0.01 | 0.01 | 83 | 1017.3 |
| 20260507195325 | 60 | 4 | 2.6 | 5.2 | 0.01 | 0.01 | 0.01 | 83 | 1018.1 |
| 20260507195021 | 59 | 70 | 2.6 | 6.1 | 0.01 | 0.01 | 0.01 | 83 | 1017.5 |
| 20260507194822 | 60 | 81 | 1.7 | 5.2 | 0.01 | 0.01 | 0.01 | 83 | 1018.1 |
| 20260507194506 | 59 | 86 | 2.6 | 5.2 | 0.01 | 0.01 | 0.01 | 83 | 1017.5 |
| 20260507194318 | 60 | 110 | 2.6 | 5.2 | 0.01 | 0.01 | 0.01 | 83 | 1018.2 |
| 20260507194105 | 59 | 70 | 1.7 | 5.2 | 0.01 | 0.01 | 0.01 | 83 | 1018.0 |
| 20260507193815 | 60 | 61 | 2.6 | 5.2 | 0.01 | 0.01 | 0.01 | 83 | 1018.4 |
| 20260507193553 | 60 | 73 | 1.7 | 5.2 | 0.01 | 0.01 | 0.01 | 83 | 1018.0 |
| 20260507193331 | 60 | 47 | 2.6 | 5.2 | 0.01 | 0.01 | 0.01 | 82 | 1018.7 |
| 20260507193045 | 60 | 58 | 1.7 | 4.3 | 0.01 | 0.01 | 0.01 | 82 | 1018.5 |
| 20260507192826 | 60 | 26 | 2.6 | 4.3 | 0.01 | 0.01 | 0.01 | 80 | 1019.2 |
| 20260507192541 | 60 | 214 | 0.0 | 2.6 | 0.00 | 0.00 | 0.00 | 80 | 1019.2 |
| 20260507192321 | 60 | 214 | 0.9 | 3.5 | 0.00 | 0.00 | 0.00 | 79 | 1019.9 |
| 20260507192016 | 60 | 214 | 0.9 | 3.5 | 0.00 | 0.00 | 0.00 | 79 | 1019.8 |
| 20260507191817 | 60 | 214 | 0.9 | 4.3 | 0.00 | 0.00 | 0.00 | 79 | 1020.5 |
| 20260507191558 | 60 | 214 | 0.9 | 6.1 | 0.00 | 0.00 | 0.00 | 79 | 1019.9 |
| 20260507191351 | 60 | 214 | 1.7 | 6.1 | 0.00 | 0.00 | 0.00 | 78 | 1020.4 |
| 20260507191033 | 60 | 214 | 1.7 | 6.1 | 0.00 | 0.00 | 0.00 | 78 | 1020.0 |
| 20260507190847 | 60 | 192 | 4.3 | 6.1 | 0.00 | 0.00 | 0.00 | 78 | 1020.6 |
| 20260507190604 | 60 | 203 | 1.7 | 7.8 | 0.00 | 0.00 | 0.00 | 77 | 1019.8 |
| 20260507190344 | 60 | 305 | 1.7 | 8.7 | 0.00 | 0.00 | 0.00 | 77 | 1020.1 |
| 20260507190035 | 60 | 359 | 2.6 | 8.7 | 0.00 | 0.00 | 0.00 | 77 | 1019.1 |
| 20260507185819 | 60 | 12 | 4.3 | 9.6 | 0.00 | 0.01 | 0.00 | 76 | 1019.7 |
| 20260507185525 | 60 | 349 | 5.2 | 9.6 | 0.00 | 0.01 | 0.00 | 76 | 1019.2 |
| 20260507185316 | 60 | 48 | 4.3 | 9.6 | 0.00 | 0.01 | 0.00 | 77 | 1019.7 |
| 20260507185018 | 60 | 25 | 4.3 | 9.6 | 0.00 | 0.01 | 0.00 | 77 | 1018.9 |
| 20260507184831 | 60 | 35 | 5.2 | 7.8 | 0.00 | 0.01 | 0.00 | 77 | 1019.4 |
| 20260507184511 | 59 | 8 | 3.5 | 8.7 | 0.00 | 0.01 | 0.00 | 77 | 1019.2 |
| 20260507184326 | 60 | 10 | 3.5 | 8.7 | 0.00 | 0.01 | 0.00 | 76 | 1019.8 |
| 20260507184057 | 59 | 41 | 3.5 | 8.7 | 0.00 | 0.01 | 0.00 | 77 | 1019.2 |
| 20260507183823 | 59 | 27 | 3.5 | 8.7 | 0.00 | 0.01 | 0.00 | 77 | 1019.9 |
| 20260507183551 | 59 | 33 | 4.3 | 8.7 | 0.00 | 0.01 | 0.00 | 76 | 1019.3 |
| 20260507183320 | 59 | 16 | 4.3 | 7.0 | 0.00 | 0.01 | 0.00 | 76 | 1020.0 |
| 20260507183041 | 59 | 31 | 1.7 | 7.8 | 0.00 | 0.01 | 0.00 | 77 | 1019.5 |
| 20260507182816 | 59 | 79 | 1.7 | 7.8 | 0.00 | 0.01 | 0.00 | 77 | 1020.0 |
| 20260507182533 | 59 | 58 | 3.5 | 7.8 | 0.00 | 0.01 | 0.00 | 77 | 1019.3 |
| 20260507182331 | 60 | 32 | 3.5 | 8.7 | 0.00 | 0.01 | 0.00 | 77 | 1019.9 |
| 20260507182015 | 59 | 60 | 3.5 | 8.7 | 0.00 | 0.01 | 0.00 | 77 | 1019.3 |
| 20260507181828 | 60 | 33 | 4.3 | 8.7 | 0.00 | 0.01 | 0.00 | 77 | 1019.8 |
| 20260507181507 | 59 | 77 | 4.3 | 7.8 | 0.00 | 0.01 | 0.00 | 77 | 1019.4 |
| 20260507181324 | 60 | 82 | 4.3 | 7.0 | 0.00 | 0.01 | 0.00 | 77 | 1020.4 |
| 20260507181102 | 59 | 81 | 1.7 | 6.1 | 0.00 | 0.01 | 0.00 | 76 | 1020.1 |
| 20260507180821 | 60 | 83 | 0.0 | 6.1 | 0.00 | 0.01 | 0.00 | 77 | 1020.7 |
| 20260507180559 | 59 | 48 | 2.6 | 9.6 | 0.00 | 0.01 | 0.00 | 77 | 1019.9 |
| 20260507180316 | 60 | 106 | 2.6 | 9.6 | 0.00 | 0.01 | 0.00 | 77 | 1020.5 |
| 20260507180048 | 59 | 48 | 2.6 | 9.6 | 0.00 | 0.01 | 0.00 | 76 | 1019.8 |
| 20260507175832 | 60 | 62 | 5.2 | 9.6 | 0.00 | 0.01 | 0.00 | 76 | 1020.3 |
| 20260507175535 | 59 | 53 | 5.2 | 11.3 | 0.00 | 0.01 | 0.00 | 76 | 1019.7 |
| 20260507175328 | 59 | 69 | 4.3 | 12.2 | 0.00 | 0.01 | 0.00 | 77 | 1020.2 |
| 20260507175029 | 59 | 22 | 5.2 | 12.2 | 0.00 | 0.01 | 0.00 | 77 | 1019.6 |
| 20260507174823 | 59 | 54 | 5.2 | 12.2 | 0.00 | 0.01 | 0.00 | 77 | 1020.1 |
| 20260507174523 | 59 | 49 | 6.1 | 12.2 | 0.00 | 0.01 | 0.00 | 77 | 1019.3 |
| 20260507174340 | 59 | 23 | 6.1 | 12.2 | 0.00 | 0.01 | 0.00 | 77 | 1020.0 |
| 20260507174047 | 59 | 73 | 4.3 | 12.2 | 0.00 | 0.01 | 0.00 | 78 | 1019.5 |
| 20260507173814 | 59 | 31 | 6.1 | 12.2 | 0.00 | 0.01 | 0.00 | 77 | 1020.0 |
| 20260507173541 | 58 | 100 | 3.5 | 10.4 | 0.00 | 0.01 | 0.00 | 78 | 1019.2 |
| 20260507173331 | 59 | 48 | 7.0 | 10.4 | 0.00 | 0.01 | 0.00 | 78 | 1019.6 |
| 20260507173035 | 58 | 22 | 6.1 | 11.3 | 0.00 | 0.01 | 0.00 | 78 | 1019.0 |
| 20260507172826 | 59 | 60 | 5.2 | 11.3 | 0.00 | 0.01 | 0.00 | 78 | 1019.6 |
| 20260507172525 | 58 | 35 | 4.3 | 11.3 | 0.00 | 0.01 | 0.00 | 79 | 1019.3 |
| 20260507172322 | 59 | 77 | 6.1 | 12.2 | 0.00 | 0.01 | 0.00 | 78 | 1019.8 |
| 20260507172016 | 58 | 70 | 3.5 | 12.2 | 0.00 | 0.01 | 0.00 | 79 | 1019.3 |
| 20260507171818 | 59 | 59 | 5.2 | 12.2 | 0.00 | 0.01 | 0.00 | 79 | 1019.9 |
| 20260507171607 | 58 | 65 | 6.1 | 10.4 | 0.00 | 0.01 | 0.00 | 79 | 1019.4 |
| 20260507171314 | 58 | 27 | 7.0 | 13.0 | 0.00 | 0.01 | 0.00 | 79 | 1020.0 |
| 20260507171053 | 58 | 40 | 3.5 | 13.0 | 0.00 | 0.01 | 0.00 | 80 | 1019.5 |
| 20260507170832 | 58 | 34 | 5.2 | 13.0 | 0.00 | 0.01 | 0.00 | 80 | 1020.1 |
| 20260507170547 | 58 | 28 | 7.0 | 13.0 | 0.00 | 0.01 | 0.00 | 80 | 1019.4 |
| 20260507170329 | 58 | 81 | 5.2 | 8.7 | 0.00 | 0.01 | 0.00 | 80 | 1019.8 |
| 20260507170040 | 57 | 52 | 3.5 | 8.7 | 0.00 | 0.01 | 0.00 | 81 | 1019.3 |
| 20260507165824 | 58 | 84 | 4.3 | 8.7 | 0.00 | 0.01 | 0.00 | 81 | 1019.9 |
| 20260507165534 | 57 | 85 | 4.3 | 9.6 | 0.00 | 0.01 | 0.00 | 80 | 1019.4 |
| 20260507165320 | 58 | 59 | 4.3 | 9.6 | 0.00 | 0.01 | 0.00 | 80 | 1020.3 |
| 20260507165025 | 57 | 90 | 4.3 | 9.6 | 0.00 | 0.01 | 0.00 | 81 | 1019.8 |
| 20260507164817 | 58 | 39 | 4.3 | 7.8 | 0.00 | 0.01 | 0.00 | 81 | 1020.3 |
| 20260507164512 | 57 | 46 | 3.5 | 7.8 | 0.00 | 0.01 | 0.00 | 81 | 1020.0 |
| 20260507164354 | 58 | 25 | 2.6 | 7.8 | 0.00 | 0.01 | 0.00 | 81 | 1020.7 |
| 20260507164043 | 57 | 68 | 3.5 | 7.8 | 0.00 | 0.01 | 0.00 | 80 | 1020.2 |
| 20260507163849 | 58 | 74 | 4.3 | 7.8 | 0.00 | 0.01 | 0.00 | 80 | 1020.6 |
| 20260507163507 | 57 | 65 | 3.5 | 7.0 | 0.00 | 0.01 | 0.00 | 81 | 1020.2 |
| 20260507163320 | 58 | 108 | 2.6 | 7.0 | 0.00 | 0.01 | 0.00 | 81 | 1020.7 |
| 20260507163041 | 57 | 93 | 2.6 | 7.0 | 0.00 | 0.01 | 0.00 | 80 | 1020.1 |
| 20260507162816 | 58 | 79 | 3.5 | 6.1 | 0.00 | 0.01 | 0.00 | 81 | 1020.8 |
| 20260507162534 | 57 | 69 | 1.7 | 6.1 | 0.00 | 0.01 | 0.00 | 81 | 1020.6 |
| 20260507162332 | 58 | 58 | 1.7 | 5.2 | 0.00 | 0.01 | 0.00 | 81 | 1021.3 |
| 20260507162023 | 57 | 38 | 1.7 | 7.8 | 0.00 | 0.01 | 0.00 | 81 | 1020.7 |
| 20260507161829 | 57 | 97 | 1.7 | 8.7 | 0.00 | 0.01 | 0.00 | 81 | 1021.0 |
| 20260507161511 | 57 | 44 | 2.6 | 8.7 | 0.00 | 0.01 | 0.00 | 81 | 1020.4 |
| 20260507161325 | 57 | 30 | 3.5 | 8.7 | 0.00 | 0.01 | 0.00 | 81 | 1020.6 |
| 20260507161005 | 57 | 79 | 4.3 | 7.8 | 0.00 | 0.01 | 0.00 | 81 | 1019.6 |
| 20260507160821 | 57 | 65 | 4.3 | 7.8 | 0.00 | 0.01 | 0.00 | 81 | 1020.4 |
| 20260507160602 | 57 | 84 | 1.7 | 5.2 | 0.00 | 0.01 | 0.00 | 82 | 1020.2 |
| 20260507160318 | 57 | 52 | 1.7 | 5.2 | 0.00 | 0.01 | 0.00 | 81 | 1020.9 |
| 20260507160107 | 57 | 48 | 2.6 | 5.2 | 0.00 | 0.01 | 0.00 | 81 | 1020.7 |
| 20260507155814 | 57 | 59 | 0.9 | 8.7 | 0.00 | 0.05 | 0.00 | 82 | 1021.2 |
| 20260507155549 | 57 | 63 | 3.5 | 8.7 | 0.00 | 0.05 | 0.00 | 82 | 1020.3 |
| 20260507155329 | 57 | 60 | 2.6 | 8.7 | 0.00 | 0.05 | 0.00 | 82 | 1020.5 |
| 20260507155013 | 57 | 57 | 4.3 | 9.6 | 0.00 | 0.05 | 0.00 | 81 | 1019.8 |
| 20260507154823 | 57 | 44 | 4.3 | 9.6 | 0.00 | 0.05 | 0.00 | 81 | 1020.5 |
| 20260507154503 | 57 | 29 | 4.3 | 9.6 | 0.00 | 0.05 | 0.00 | 81 | 1020.1 |
| 20260507154320 | 57 | 65 | 6.1 | 9.6 | 0.00 | 0.05 | 0.00 | 81 | 1020.6 |
| 20260507154056 | 57 | 32 | 5.2 | 10.4 | 0.00 | 0.05 | 0.00 | 81 | 1020.2 |
| 20260507153815 | 57 | 77 | 4.3 | 10.4 | 0.00 | 0.05 | 0.00 | 81 | 1020.8 |
| 20260507153549 | 57 | 27 | 3.5 | 10.4 | 0.00 | 0.05 | 0.00 | 82 | 1020.4 |
| 20260507153331 | 57 | 46 | 6.1 | 9.6 | 0.00 | 0.05 | 0.00 | 82 | 1020.9 |
| 20260507153027 | 57 | 35 | 3.5 | 9.6 | 0.00 | 0.05 | 0.00 | 83 | 1020.3 |
| 20260507152818 | 57 | 25 | 3.5 | 9.6 | 0.00 | 0.05 | 0.00 | 83 | 1021.0 |
| 20260507152503 | 57 | 34 | 4.3 | 9.6 | 0.00 | 0.05 | 0.00 | 83 | 1020.3 |
| 20260507152313 | 57 | 39 | 6.1 | 9.6 | 0.00 | 0.05 | 0.00 | 83 | 1020.9 |
| 20260507152057 | 57 | 9 | 4.3 | 8.7 | 0.00 | 0.05 | 0.00 | 83 | 1020.4 |
| 20260507151852 | 57 | 43 | 4.3 | 8.7 | 0.00 | 0.05 | 0.00 | 83 | 1021.0 |
| 20260507151531 | 57 | 12 | 3.5 | 8.7 | 0.00 | 0.05 | 0.00 | 83 | 1020.7 |
| 20260507151328 | 57 | 64 | 4.3 | 7.8 | 0.00 | 0.05 | 0.00 | 83 | 1021.3 |
| 20260507151027 | 57 | 27 | 3.5 | 9.6 | 0.00 | 0.05 | 0.00 | 83 | 1020.6 |
| 20260507150836 | 57 | 58 | 3.5 | 10.4 | 0.00 | 0.05 | 0.00 | 83 | 1020.9 |
| 20260507150544 | 57 | 67 | 5.2 | 10.4 | 0.00 | 0.05 | 0.00 | 83 | 1020.5 |
| 20260507150350 | 57 | 21 | 5.2 | 10.4 | 0.00 | 0.05 | 0.00 | 83 | 1021.1 |
| 20260507150012 | 57 | 55 | 3.5 | 9.6 | 0.00 | 0.09 | 0.00 | 83 | 1020.5 |
| 20260507145826 | 57 | 4 | 5.2 | 9.6 | 0.00 | 0.09 | 0.00 | 84 | 1021.0 |
| 20260507145600 | 57 | 23 | 5.2 | 10.4 | 0.00 | 0.09 | 0.00 | 83 | 1020.6 |
| 20260507145321 | 57 | 68 | 5.2 | 10.4 | 0.00 | 0.09 | 0.00 | 83 | 1021.2 |
| 20260507145053 | 57 | 67 | 4.3 | 10.4 | 0.00 | 0.09 | 0.00 | 84 | 1020.5 |
| 20260507144818 | 57 | 58 | 5.2 | 10.4 | 0.00 | 0.09 | 0.00 | 84 | 1021.0 |
| 20260507144547 | 57 | 56 | 6.1 | 9.6 | 0.00 | 0.09 | 0.00 | 84 | 1020.4 |
| 20260507144333 | 57 | 73 | 7.0 | 9.6 | 0.00 | 0.09 | 0.00 | 84 | 1021.1 |
| 20260507144040 | 57 | 65 | 4.3 | 8.7 | 0.00 | 0.09 | 0.00 | 84 | 1020.6 |
| 20260507143829 | 57 | 70 | 4.3 | 8.7 | 0.00 | 0.09 | 0.00 | 84 | 1021.1 |
| 20260507143528 | 57 | 43 | 3.5 | 10.4 | 0.00 | 0.09 | 0.00 | 85 | 1020.8 |
| 20260507143345 | 57 | 45 | 3.5 | 10.4 | 0.00 | 0.09 | 0.00 | 85 | 1021.0 |
| 20260507143053 | 57 | 58 | 6.1 | 10.4 | 0.00 | 0.09 | 0.00 | 85 | 1020.1 |
| 20260507142820 | 57 | 65 | 4.3 | 9.6 | 0.00 | 0.09 | 0.00 | 85 | 1020.6 |
| 20260507142546 | 57 | 17 | 5.2 | 12.2 | 0.00 | 0.09 | 0.00 | 85 | 1020.0 |
| 20260507142352 | 57 | 75 | 6.1 | 12.2 | 0.00 | 0.09 | 0.00 | 85 | 1020.5 |
| 20260507142009 | 57 | 12 | 4.3 | 12.2 | 0.00 | 0.09 | 0.00 | 85 | 1020.0 |
| 20260507141826 | 57 | 75 | 5.2 | 12.2 | 0.00 | 0.09 | 0.00 | 85 | 1020.6 |
| 20260507141501 | 57 | 15 | 7.0 | 12.2 | 0.00 | 0.09 | 0.00 | 86 | 1019.8 |
| 20260507141323 | 57 | 16 | 6.1 | 9.6 | 0.00 | 0.09 | 0.00 | 86 | 1020.3 |
| 20260507141053 | 57 | 348 | 3.5 | 9.6 | 0.00 | 0.09 | 0.00 | 86 | 1019.7 |
| 20260507140841 | 57 | 31 | 5.2 | 13.9 | 0.00 | 0.09 | 0.00 | 86 | 1020.2 |
| 20260507140527 | 56 | 73 | 5.2 | 15.6 | 0.00 | 0.09 | 0.00 | 86 | 1019.7 |
| 20260507140316 | 57 | 13 | 5.2 | 15.6 | 0.00 | 0.09 | 0.00 | 86 | 1020.3 |
| 20260507140022 | 56 | 18 | 7.8 | 15.6 | 0.00 | 0.09 | 0.00 | 86 | 1019.7 |
| 20260507135852 | 56 | 359 | 7.0 | 12.2 | 0.00 | 0.09 | 0.00 | 87 | 1020.2 |
| 20260507135543 | 56 | 10 | 6.1 | 14.8 | 0.00 | 0.09 | 0.00 | 87 | 1019.7 |
| 20260507135327 | 56 | 18 | 7.0 | 14.8 | 0.00 | 0.09 | 0.00 | 87 | 1020.3 |
| 20260507135036 | 55 | 4 | 7.0 | 14.8 | 0.00 | 0.09 | 0.00 | 87 | 1019.7 |
| 20260507134822 | 56 | 30 | 7.8 | 14.8 | 0.00 | 0.09 | 0.00 | 87 | 1020.3 |
| 20260507134530 | 55 | 46 | 5.2 | 13.0 | 0.00 | 0.09 | 0.00 | 87 | 1019.8 |
| 20260507134318 | 56 | 93 | 5.2 | 13.0 | 0.00 | 0.09 | 0.00 | 87 | 1020.3 |
| 20260507134023 | 55 | 34 | 6.1 | 14.8 | 0.00 | 0.09 | 0.00 | 87 | 1019.8 |
| 20260507133814 | 56 | 359 | 6.1 | 14.8 | 0.00 | 0.09 | 0.00 | 87 | 1020.3 |
| 20260507133518 | 55 | 35 | 7.0 | 14.8 | 0.00 | 0.09 | 0.00 | 87 | 1019.7 |
| 20260507133333 | 55 | 57 | 8.7 | 14.8 | 0.00 | 0.09 | 0.00 | 87 | 1020.1 |
| 20260507133003 | 55 | 10 | 6.1 | 13.0 | 0.00 | 0.09 | 0.00 | 88 | 1019.6 |
| 20260507132829 | 55 | 19 | 7.0 | 13.0 | 0.00 | 0.09 | 0.00 | 88 | 1020.2 |
| 20260507132554 | 55 | 41 | 7.0 | 13.0 | 0.00 | 0.09 | 0.00 | 88 | 1019.8 |
| 20260507132325 | 56 | 68 | 7.0 | 13.0 | 0.00 | 0.09 | 0.00 | 88 | 1020.5 |
| 20260507132050 | 55 | 18 | 3.5 | 11.3 | 0.00 | 0.09 | 0.00 | 88 | 1020.0 |
| 20260507131842 | 55 | 359 | 5.2 | 11.3 | 0.00 | 0.09 | 0.00 | 88 | 1020.4 |
| 20260507131530 | 55 | 28 | 5.2 | 13.0 | 0.00 | 0.09 | 0.00 | 88 | 1019.8 |
| 20260507131317 | 55 | 27 | 7.0 | 13.0 | 0.00 | 0.09 | 0.00 | 88 | 1020.4 |
| 20260507131016 | 55 | 4 | 6.1 | 13.0 | 0.00 | 0.09 | 0.00 | 88 | 1019.8 |
| 20260507130814 | 55 | 37 | 7.8 | 13.9 | 0.00 | 0.09 | 0.00 | 88 | 1020.5 |
| 20260507130559 | 55 | 37 | 5.2 | 13.9 | 0.00 | 0.09 | 0.00 | 88 | 1020.0 |
| 20260507130330 | 55 | 339 | 5.2 | 13.9 | 0.00 | 0.09 | 0.00 | 88 | 1020.5 |
| 20260507130053 | 55 | 75 | 6.1 | 13.9 | 0.00 | 0.09 | 0.00 | 88 | 1020.1 |
| 20260507125846 | 55 | 9 | 6.1 | 9.6 | 0.00 | 0.09 | 0.00 | 88 | 1020.7 |
| 20260507125525 | 55 | 25 | 4.3 | 9.6 | 0.00 | 0.09 | 0.00 | 88 | 1020.2 |
| 20260507125342 | 55 | 354 | 2.6 | 10.4 | 0.00 | 0.09 | 0.00 | 88 | 1021.0 |
| 20260507125051 | 55 | 15 | 4.3 | 10.4 | 0.00 | 0.09 | 0.00 | 88 | 1020.2 |
| 20260507124817 | 55 | 38 | 4.3 | 10.4 | 0.00 | 0.09 | 0.00 | 88 | 1020.7 |
| 20260507124538 | 54 | 53 | 3.5 | 10.4 | 0.00 | 0.09 | 0.00 | 88 | 1020.1 |
| 20260507124314 | 55 | 62 | 5.2 | 10.4 | 0.00 | 0.09 | 0.00 | 88 | 1020.6 |
| 20260507124029 | 55 | 48 | 5.2 | 10.4 | 0.00 | 0.09 | 0.00 | 88 | 1020.0 |
| 20260507123831 | 55 | 16 | 3.5 | 10.4 | 0.00 | 0.09 | 0.00 | 88 | 1020.8 |
| 20260507123516 | 55 | 84 | 4.3 | 10.4 | 0.00 | 0.09 | 0.00 | 88 | 1020.1 |
| 20260507123325 | 55 | 56 | 5.2 | 10.4 | 0.00 | 0.09 | 0.00 | 88 | 1020.6 |
| 20260507123006 | 55 | 42 | 3.5 | 7.8 | 0.00 | 0.09 | 0.00 | 88 | 1019.9 |
| 20260507122842 | 55 | 50 | 4.3 | 8.7 | 0.00 | 0.09 | 0.00 | 88 | 1020.4 |
| 20260507122538 | 55 | 44 | 2.6 | 8.7 | 0.00 | 0.09 | 0.00 | 88 | 1019.8 |
| 20260507122316 | 55 | 4 | 2.6 | 8.7 | 0.00 | 0.09 | 0.00 | 88 | 1020.3 |
| 20260507122030 | 55 | 359 | 4.3 | 8.7 | 0.00 | 0.09 | 0.00 | 88 | 1019.6 |
| 20260507121831 | 55 | 36 | 5.2 | 8.7 | 0.00 | 0.09 | 0.00 | 88 | 1020.3 |
| 20260507121526 | 55 | 28 | 3.5 | 9.6 | 0.00 | 0.09 | 0.00 | 88 | 1019.8 |
| 20260507121328 | 55 | 27 | 3.5 | 11.3 | 0.00 | 0.09 | 0.00 | 88 | 1020.4 |
| 20260507121007 | 55 | 25 | 2.6 | 11.3 | 0.00 | 0.09 | 0.00 | 88 | 1019.8 |
| 20260507120824 | 55 | 26 | 6.1 | 12.2 | 0.00 | 0.09 | 0.00 | 88 | 1020.4 |
| 20260507120603 | 55 | 34 | 5.2 | 12.2 | 0.00 | 0.09 | 0.00 | 88 | 1019.7 |
| 20260507120319 | 55 | 359 | 5.2 | 12.2 | 0.00 | 0.09 | 0.00 | 88 | 1020.2 |
| 20260507120055 | 55 | 25 | 4.3 | 10.4 | 0.00 | 0.10 | 0.00 | 88 | 1019.5 |
| 20260507115814 | 55 | 14 | 5.2 | 10.4 | 0.00 | 0.10 | 0.00 | 88 | 1020.2 |
| 20260507115547 | 55 | 39 | 6.1 | 10.4 | 0.00 | 0.10 | 0.00 | 88 | 1019.7 |
| 20260507115326 | 55 | 4 | 7.0 | 10.4 | 0.00 | 0.10 | 0.00 | 88 | 1020.3 |
| 20260507115036 | 55 | 359 | 6.1 | 9.6 | 0.00 | 0.10 | 0.00 | 88 | 1019.7 |
| 20260507114821 | 55 | 341 | 6.1 | 9.6 | 0.00 | 0.10 | 0.00 | 88 | 1020.3 |
| 20260507114526 | 55 | 34 | 4.3 | 9.6 | 0.00 | 0.10 | 0.00 | 88 | 1019.6 |
| 20260507114317 | 55 | 8 | 5.2 | 9.6 | 0.00 | 0.10 | 0.00 | 88 | 1020.1 |
| 20260507114010 | 55 | 83 | 6.1 | 9.6 | 0.00 | 0.10 | 0.00 | 88 | 1019.6 |
| 20260507113853 | 55 | 23 | 4.3 | 9.6 | 0.00 | 0.10 | 0.00 | 88 | 1020.3 |
| 20260507113542 | 55 | 25 | 4.3 | 7.8 | 0.00 | 0.10 | 0.00 | 88 | 1019.9 |
| 20260507113327 | 55 | 31 | 4.3 | 7.8 | 0.00 | 0.10 | 0.00 | 88 | 1020.4 |
| 20260507113005 | 55 | 359 | 3.5 | 7.8 | 0.00 | 0.10 | 0.00 | 88 | 1019.6 |
| 20260507112823 | 55 | 359 | 3.5 | 7.8 | 0.00 | 0.10 | 0.00 | 88 | 1020.3 |
| 20260507112558 | 55 | 48 | 3.5 | 12.2 | 0.00 | 0.10 | 0.00 | 88 | 1019.6 |
| 20260507112319 | 55 | 27 | 4.3 | 12.2 | 0.00 | 0.10 | 0.00 | 88 | 1020.3 |
| 20260507112048 | 55 | 24 | 4.3 | 12.2 | 0.00 | 0.10 | 0.00 | 88 | 1019.5 |
| 20260507111814 | 55 | 8 | 5.2 | 12.2 | 0.00 | 0.10 | 0.00 | 88 | 1020.1 |
| 20260507111544 | 55 | 8 | 5.2 | 10.4 | 0.00 | 0.10 | 0.00 | 88 | 1019.3 |
| 20260507111329 | 55 | 52 | 5.2 | 10.4 | 0.00 | 0.10 | 0.00 | 88 | 1019.9 |
| 20260507111004 | 55 | 62 | 4.3 | 11.3 | 0.00 | 0.10 | 0.00 | 88 | 1019.2 |
| 20260507110824 | 55 | 32 | 6.1 | 11.3 | 0.00 | 0.10 | 0.00 | 88 | 1019.8 |
| 20260507110600 | 55 | 8 | 6.1 | 11.3 | 0.00 | 0.10 | 0.00 | 88 | 1019.2 |
| 20260507110321 | 55 | 15 | 7.0 | 12.2 | 0.00 | 0.10 | 0.00 | 88 | 1019.7 |
| 20260507110057 | 55 | 16 | 6.1 | 13.0 | 0.00 | 0.10 | 0.00 | 87 | 1019.1 |
| 20260507105837 | 55 | 49 | 6.1 | 13.9 | 0.00 | 0.10 | 0.00 | 87 | 1019.8 |
| 20260507105524 | 55 | 359 | 7.0 | 13.9 | 0.00 | 0.10 | 0.00 | 87 | 1018.9 |
| 20260507105332 | 55 | 31 | 7.8 | 13.9 | 0.00 | 0.10 | 0.00 | 87 | 1019.5 |
| 20260507105016 | 55 | 43 | 5.2 | 12.2 | 0.00 | 0.10 | 0.00 | 87 | 1018.9 |
| 20260507104827 | 55 | 27 | 5.2 | 12.2 | 0.00 | 0.10 | 0.00 | 87 | 1019.7 |
| 20260507104507 | 55 | 27 | 5.2 | 13.0 | 0.00 | 0.10 | 0.00 | 87 | 1019.2 |
| 20260507104323 | 55 | 8 | 5.2 | 13.0 | 0.00 | 0.10 | 0.00 | 87 | 1019.8 |
| 20260507104059 | 55 | 30 | 7.8 | 13.0 | 0.00 | 0.10 | 0.00 | 87 | 1019.0 |
| 20260507103819 | 55 | 28 | 7.0 | 13.0 | 0.00 | 0.10 | 0.00 | 87 | 1019.6 |
| 20260507103554 | 55 | 18 | 4.3 | 10.4 | 0.00 | 0.10 | 0.00 | 87 | 1018.8 |
| 20260507103317 | 55 | 9 | 5.2 | 10.4 | 0.00 | 0.10 | 0.00 | 87 | 1019.5 |
| 20260507103043 | 55 | 35 | 5.2 | 13.9 | 0.00 | 0.10 | 0.00 | 87 | 1018.8 |
| 20260507102825 | 56 | 27 | 6.1 | 13.9 | 0.00 | 0.10 | 0.00 | 87 | 1019.5 |
| 20260507102534 | 55 | 27 | 7.8 | 13.9 | 0.00 | 0.10 | 0.00 | 87 | 1019.0 |
| 20260507102321 | 56 | 37 | 7.8 | 13.9 | 0.00 | 0.10 | 0.00 | 87 | 1019.6 |
| 20260507102027 | 55 | 31 | 6.1 | 13.0 | 0.00 | 0.10 | 0.00 | 87 | 1019.1 |
| 20260507101818 | 56 | 350 | 7.8 | 13.0 | 0.00 | 0.10 | 0.00 | 87 | 1019.8 |
| 20260507101511 | 55 | 34 | 2.6 | 9.6 | 0.00 | 0.10 | 0.00 | 88 | 1019.1 |
| 20260507101314 | 56 | 359 | 2.6 | 10.4 | 0.00 | 0.10 | 0.00 | 88 | 1019.9 |
| 20260507101005 | 55 | 16 | 1.7 | 11.3 | 0.00 | 0.10 | 0.00 | 88 | 1018.9 |
| 20260507100830 | 56 | 60 | 4.3 | 11.3 | 0.00 | 0.10 | 0.00 | 88 | 1019.4 |
| 20260507100602 | 55 | 359 | 6.1 | 11.3 | 0.00 | 0.10 | 0.00 | 88 | 1018.6 |
| 20260507100324 | 56 | 4 | 7.0 | 11.3 | 0.00 | 0.10 | 0.00 | 88 | 1019.2 |
| 20260507100034 | 55 | 359 | 6.1 | 10.4 | 0.00 | 0.10 | 0.00 | 88 | 1018.5 |
| 20260507095839 | 56 | 26 | 5.2 | 10.4 | 0.00 | 0.10 | 0.00 | 88 | 1019.2 |
| 20260507095558 | 55 | 16 | 3.5 | 8.7 | 0.00 | 0.10 | 0.00 | 88 | 1018.8 |
| 20260507095314 | 56 | 28 | 5.2 | 8.7 | 0.00 | 0.10 | 0.00 | 88 | 1019.7 |
| 20260507095048 | 55 | 359 | 3.5 | 10.4 | 0.00 | 0.10 | 0.00 | 88 | 1018.7 |
| 20260507094832 | 56 | 12 | 5.2 | 10.4 | 0.00 | 0.10 | 0.00 | 88 | 1019.3 |
| 20260507094546 | 55 | 14 | 4.3 | 11.3 | 0.00 | 0.10 | 0.00 | 88 | 1018.2 |
| 20260507094329 | 56 | 346 | 6.1 | 13.0 | 0.00 | 0.10 | 0.00 | 88 | 1019.0 |
| 20260507094031 | 55 | 19 | 5.2 | 13.0 | 0.00 | 0.10 | 0.00 | 88 | 1018.1 |
| 20260507093823 | 56 | 50 | 7.8 | 13.0 | 0.00 | 0.10 | 0.00 | 88 | 1018.9 |
| 20260507093525 | 56 | 44 | 4.3 | 10.4 | 0.00 | 0.10 | 0.00 | 89 | 1018.3 |
| 20260507093320 | 56 | 35 | 5.2 | 10.4 | 0.00 | 0.10 | 0.00 | 89 | 1019.1 |
| 20260507093025 | 56 | 25 | 6.1 | 10.4 | 0.00 | 0.10 | 0.00 | 89 | 1018.6 |
| 20260507092815 | 56 | 14 | 4.3 | 11.3 | 0.00 | 0.10 | 0.00 | 89 | 1019.4 |
| 20260507092502 | 56 | 4 | 5.2 | 11.3 | 0.00 | 0.10 | 0.00 | 89 | 1018.4 |
| 20260507092327 | 56 | 31 | 5.2 | 11.3 | 0.00 | 0.10 | 0.00 | 89 | 1019.1 |
| 20260507092054 | 56 | 34 | 7.0 | 10.4 | 0.00 | 0.10 | 0.00 | 89 | 1018.0 |
| 20260507091822 | 56 | 29 | 5.2 | 10.4 | 0.00 | 0.10 | 0.00 | 90 | 1018.7 |
| 20260507091600 | 56 | 19 | 4.3 | 7.8 | 0.00 | 0.10 | 0.00 | 89 | 1018.3 |
| 20260507091318 | 56 | 354 | 4.3 | 7.8 | 0.00 | 0.10 | 0.00 | 89 | 1019.2 |
| 20260507091040 | 56 | 15 | 3.5 | 7.0 | 0.00 | 0.10 | 0.00 | 89 | 1018.2 |
| 20260507090814 | 56 | 4 | 2.6 | 9.6 | 0.00 | 0.10 | 0.00 | 89 | 1019.1 |
| 20260507090534 | 56 | 23 | 2.6 | 9.6 | 0.00 | 0.10 | 0.00 | 89 | 1018.6 |
| 20260507090330 | 56 | 24 | 4.3 | 9.6 | 0.00 | 0.10 | 0.00 | 89 | 1019.1 |
| 20260507090028 | 56 | 46 | 4.3 | 8.7 | 0.00 | 0.10 | 0.00 | 89 | 1018.2 |
| 20260507085825 | 56 | 21 | 3.5 | 8.7 | 0.00 | 0.10 | 0.00 | 89 | 1019.5 |
| 20260507085510 | 56 | 27 | 1.7 | 8.7 | 0.00 | 0.10 | 0.00 | 89 | 1018.7 |
| 20260507085342 | 56 | 66 | 4.3 | 8.7 | 0.00 | 0.10 | 0.00 | 89 | 1019.0 |
| 20260507085042 | 56 | 345 | 2.6 | 9.6 | 0.00 | 0.10 | 0.00 | 89 | 1018.1 |
| 20260507084816 | 56 | 75 | 2.6 | 9.6 | 0.00 | 0.10 | 0.00 | 89 | 1018.8 |
| 20260507084536 | 56 | 333 | 5.2 | 9.6 | 0.00 | 0.10 | 0.00 | 89 | 1017.6 |
| 20260507084332 | 56 | 11 | 7.0 | 9.6 | 0.00 | 0.10 | 0.00 | 89 | 1018.2 |
| 20260507084030 | 56 | 21 | 3.5 | 8.7 | 0.00 | 0.10 | 0.00 | 89 | 1017.5 |
| 20260507083829 | 56 | 354 | 2.6 | 8.7 | 0.00 | 0.10 | 0.00 | 89 | 1018.4 |
| 20260507083510 | 56 | 33 | 3.5 | 9.6 | 0.00 | 0.10 | 0.00 | 89 | 1017.7 |
| 20260507083325 | 56 | 4 | 3.5 | 9.6 | 0.00 | 0.10 | 0.00 | 89 | 1018.5 |
| 20260507083002 | 56 | 20 | 5.2 | 9.6 | 0.00 | 0.10 | 0.00 | 89 | 1017.6 |
| 20260507082840 | 56 | 42 | 4.3 | 9.6 | 0.00 | 0.10 | 0.00 | 89 | 1018.4 |
| 20260507082552 | 56 | 32 | 2.6 | 8.7 | 0.00 | 0.10 | 0.00 | 89 | 1017.7 |
| 20260507082330 | 57 | 354 | 3.5 | 8.7 | 0.00 | 0.10 | 0.00 | 89 | 1018.4 |
| 20260507082046 | 56 | 48 | 2.6 | 7.8 | 0.00 | 0.10 | 0.00 | 89 | 1017.5 |
| 20260507081826 | 57 | 62 | 2.6 | 7.8 | 0.00 | 0.10 | 0.00 | 89 | 1018.3 |
| 20260507081550 | 56 | 48 | 2.6 | 6.1 | 0.00 | 0.10 | 0.00 | 89 | 1017.4 |
| 20260507081321 | 57 | 26 | 2.6 | 7.8 | 0.00 | 0.10 | 0.00 | 89 | 1018.4 |
| 20260507081030 | 56 | 68 | 3.5 | 9.6 | 0.00 | 0.10 | 0.00 | 89 | 1017.3 |
| 20260507080817 | 57 | 55 | 3.5 | 9.6 | 0.00 | 0.10 | 0.00 | 89 | 1018.2 |
| 20260507080517 | 56 | 73 | 3.5 | 9.6 | 0.00 | 0.10 | 0.00 | 89 | 1017.4 |
| 20260507080353 | 57 | 71 | 2.6 | 7.0 | 0.00 | 0.10 | 0.00 | 89 | 1018.2 |
| 20260507080048 | 56 | 48 | 2.6 | 6.1 | 0.00 | 0.10 | 0.00 | 89 | 1017.2 |
| 20260507075848 | 57 | 18 | 2.6 | 6.1 | 0.00 | 0.10 | 0.00 | 89 | 1018.1 |
| 20260507075512 | 56 | 46 | 3.5 | 7.8 | 0.00 | 0.10 | 0.00 | 89 | 1017.1 |
| 20260507075323 | 57 | 76 | 4.3 | 7.8 | 0.00 | 0.10 | 0.00 | 88 | 1017.9 |
| 20260507075009 | 56 | 52 | 4.3 | 9.6 | 0.00 | 0.10 | 0.00 | 88 | 1017.0 |
| 20260507074820 | 57 | 65 | 3.5 | 9.6 | 0.00 | 0.10 | 0.00 | 88 | 1017.7 |
| 20260507074600 | 56 | 91 | 5.2 | 9.6 | 0.00 | 0.10 | 0.00 | 88 | 1016.9 |
| 20260507074317 | 57 | 62 | 3.5 | 7.8 | 0.00 | 0.10 | 0.00 | 88 | 1017.8 |
| 20260507074051 | 56 | 52 | 1.7 | 5.2 | 0.00 | 0.10 | 0.00 | 88 | 1016.8 |
| 20260507073814 | 57 | 63 | 3.5 | 5.2 | 0.00 | 0.10 | 0.00 | 88 | 1017.5 |
| 20260507073542 | 56 | 64 | 3.5 | 8.7 | 0.00 | 0.10 | 0.00 | 88 | 1016.5 |
| 20260507073330 | 57 | 105 | 3.5 | 8.7 | 0.00 | 0.10 | 0.00 | 88 | 1017.4 |
| 20260507073044 | 56 | 45 | 1.7 | 8.7 | 0.00 | 0.10 | 0.00 | 88 | 1016.5 |
| 20260507072826 | 57 | 59 | 4.3 | 8.7 | 0.00 | 0.10 | 0.00 | 88 | 1017.3 |
| 20260507072526 | 56 | 50 | 2.6 | 7.8 | 0.00 | 0.10 | 0.00 | 88 | 1016.3 |
| 20260507072342 | 57 | 40 | 3.5 | 7.8 | 0.00 | 0.10 | 0.00 | 88 | 1017.3 |
| 20260507072050 | 56 | 49 | 2.6 | 11.3 | 0.00 | 0.10 | 0.00 | 88 | 1016.4 |
| 20260507071817 | 57 | 54 | 3.5 | 11.3 | 0.00 | 0.10 | 0.00 | 88 | 1017.2 |
| 20260507071544 | 56 | 29 | 2.6 | 11.3 | 0.00 | 0.10 | 0.00 | 88 | 1016.3 |
| 20260507071332 | 57 | 37 | 5.2 | 11.3 | 0.00 | 0.10 | 0.00 | 88 | 1017.0 |
| 20260507071008 | 56 | 41 | 3.5 | 7.8 | 0.00 | 0.10 | 0.00 | 88 | 1016.2 |
| 20260507070848 | 57 | 36 | 4.3 | 7.8 | 0.00 | 0.10 | 0.00 | 88 | 1017.0 |
| 20260507070542 | 56 | 31 | 2.6 | 7.8 | 0.00 | 0.10 | 0.00 | 88 | 1016.1 |
| 20260507070324 | 57 | 359 | 2.6 | 7.8 | 0.00 | 0.10 | 0.00 | 88 | 1017.0 |
| 20260507070041 | 56 | 45 | 3.5 | 7.8 | 0.00 | 0.10 | 0.00 | 88 | 1016.2 |
| 20260507065820 | 57 | 92 | 4.3 | 7.8 | 0.00 | 0.10 | 0.00 | 88 | 1017.2 |
| 20260507065521 | 56 | 47 | 3.5 | 7.8 | 0.00 | 0.10 | 0.00 | 88 | 1016.2 |
| 20260507065352 | 57 | 48 | 3.5 | 9.6 | 0.00 | 0.10 | 0.00 | 88 | 1017.1 |
| 20260507065054 | 56 | 39 | 2.6 | 9.6 | 0.00 | 0.10 | 0.00 | 88 | 1016.2 |
| 20260507064827 | 57 | 56 | 3.5 | 9.6 | 0.00 | 0.10 | 0.00 | 88 | 1017.0 |
| 20260507064528 | 56 | 50 | 3.5 | 9.6 | 0.00 | 0.10 | 0.00 | 88 | 1016.0 |
| 20260507064324 | 57 | 77 | 3.5 | 7.8 | 0.00 | 0.10 | 0.00 | 88 | 1016.9 |
| 20260507064024 | 56 | 69 | 4.3 | 7.8 | 0.00 | 0.10 | 0.00 | 88 | 1016.1 |
| 20260507063819 | 57 | 45 | 4.3 | 7.8 | 0.00 | 0.10 | 0.00 | 88 | 1017.0 |
| 20260507063518 | 56 | 39 | 2.6 | 7.8 | 0.00 | 0.10 | 0.00 | 87 | 1016.2 |
| 20260507063315 | 57 | 64 | 3.5 | 7.8 | 0.00 | 0.10 | 0.00 | 87 | 1017.1 |
| 20260507063104 | 56 | 54 | 3.5 | 7.8 | 0.00 | 0.10 | 0.00 | 87 | 1016.1 |
| 20260507062852 | 57 | 45 | 3.5 | 7.8 | 0.00 | 0.10 | 0.00 | 88 | 1017.1 |
| 20260507062536 | 57 | 51 | 3.5 | 7.0 | 0.00 | 0.10 | 0.00 | 87 | 1016.3 |
| 20260507062329 | 57 | 63 | 3.5 | 7.0 | 0.00 | 0.10 | 0.00 | 87 | 1017.3 |
| 20260507062030 | 57 | 57 | 2.6 | 7.0 | 0.00 | 0.10 | 0.00 | 87 | 1016.3 |
| 20260507061825 | 57 | 48 | 2.6 | 6.1 | 0.00 | 0.10 | 0.00 | 87 | 1017.2 |
| 20260507061530 | 57 | 37 | 2.6 | 6.1 | 0.00 | 0.10 | 0.00 | 87 | 1016.2 |
| 20260507061321 | 57 | 35 | 3.5 | 7.8 | 0.00 | 0.10 | 0.00 | 87 | 1017.2 |
| 20260507061008 | 57 | 39 | 3.5 | 7.8 | 0.00 | 0.10 | 0.00 | 87 | 1016.3 |
| 20260507060818 | 57 | 48 | 3.5 | 7.8 | 0.00 | 0.10 | 0.00 | 87 | 1017.2 |
| 20260507060602 | 57 | 23 | 2.6 | 7.8 | 0.00 | 0.10 | 0.00 | 87 | 1016.3 |
| 20260507060313 | 57 | 24 | 4.3 | 7.8 | 0.00 | 0.10 | 0.00 | 87 | 1017.2 |
| 20260507060058 | 57 | 64 | 1.7 | 7.0 | 0.00 | 0.10 | 0.00 | 87 | 1016.3 |
| 20260507055837 | 57 | 18 | 2.6 | 7.0 | 0.00 | 0.10 | 0.00 | 87 | 1017.3 |
| 20260507055600 | 57 | 70 | 2.6 | 7.8 | 0.00 | 0.10 | 0.00 | 87 | 1016.4 |
| 20260507055332 | 58 | 62 | 3.5 | 7.8 | 0.00 | 0.10 | 0.00 | 87 | 1017.3 |
| 20260507055034 | 57 | 58 | 2.6 | 7.8 | 0.00 | 0.10 | 0.00 | 87 | 1016.4 |
| 20260507054828 | 58 | 359 | 4.3 | 7.8 | 0.00 | 0.10 | 0.00 | 87 | 1017.4 |
| 20260507054526 | 57 | 53 | 3.5 | 7.0 | 0.00 | 0.10 | 0.00 | 86 | 1016.4 |
| 20260507054325 | 58 | 62 | 2.6 | 7.0 | 0.00 | 0.10 | 0.00 | 86 | 1017.4 |
| 20260507054021 | 57 | 55 | 3.5 | 6.1 | 0.00 | 0.10 | 0.00 | 86 | 1016.5 |
| 20260507053822 | 58 | 76 | 3.5 | 7.0 | 0.00 | 0.10 | 0.00 | 86 | 1017.5 |
| 20260507053504 | 57 | 56 | 3.5 | 7.8 | 0.00 | 0.10 | 0.00 | 86 | 1016.6 |
| 20260507053319 | 58 | 62 | 2.6 | 7.8 | 0.00 | 0.10 | 0.00 | 86 | 1017.6 |
| 20260507053058 | 57 | 58 | 3.5 | 7.8 | 0.00 | 0.10 | 0.00 | 86 | 1016.7 |
| 20260507052815 | 58 | 87 | 3.5 | 7.8 | 0.00 | 0.10 | 0.00 | 86 | 1017.6 |
| 20260507052551 | 57 | 50 | 2.6 | 7.8 | 0.00 | 0.10 | 0.00 | 86 | 1016.4 |
| 20260507052352 | 58 | 52 | 3.5 | 7.8 | 0.00 | 0.10 | 0.00 | 86 | 1017.4 |
| 20260507052024 | 58 | 60 | 3.5 | 7.8 | 0.00 | 0.10 | 0.00 | 86 | 1016.5 |
| 20260507051826 | 58 | 57 | 4.3 | 7.8 | 0.00 | 0.10 | 0.00 | 86 | 1017.6 |
| 20260507051504 | 58 | 60 | 3.5 | 7.8 | 0.00 | 0.10 | 0.00 | 86 | 1016.6 |
| 20260507051342 | 58 | 66 | 3.5 | 7.8 | 0.00 | 0.10 | 0.00 | 86 | 1017.6 |
| 20260507051035 | 58 | 44 | 3.5 | 7.8 | 0.00 | 0.10 | 0.00 | 86 | 1016.5 |
| 20260507050817 | 58 | 43 | 3.5 | 7.8 | 0.00 | 0.10 | 0.00 | 86 | 1017.6 |
| 20260507050531 | 58 | 50 | 5.2 | 8.7 | 0.00 | 0.10 | 0.00 | 86 | 1016.6 |
| 20260507050332 | 58 | 46 | 4.3 | 8.7 | 0.00 | 0.10 | 0.00 | 86 | 1017.6 |
| 20260507050119 | 58 | 57 | 4.3 | 8.7 | 0.00 | 0.10 | 0.00 | 86 | 1016.6 |
| 20260507045819 | 58 | 25 | 5.2 | 8.7 | 0.00 | 0.10 | 0.10 | 86 | 1017.6 |
| 20260507045550 | 58 | 60 | 2.6 | 8.7 | 0.00 | 0.10 | 0.10 | 86 | 1016.6 |
| 20260507045314 | 58 | 35 | 2.6 | 8.7 | 0.00 | 0.10 | 0.10 | 86 | 1017.6 |
| 20260507045042 | 58 | 82 | 4.3 | 8.7 | 0.00 | 0.10 | 0.10 | 86 | 1016.5 |
| 20260507044845 | 58 | 62 | 3.5 | 8.7 | 0.00 | 0.10 | 0.10 | 86 | 1017.4 |
| 20260507044515 | 58 | 57 | 4.3 | 8.7 | 0.00 | 0.10 | 0.10 | 86 | 1016.3 |
| 20260507044341 | 58 | 25 | 3.5 | 7.0 | 0.00 | 0.10 | 0.10 | 86 | 1017.4 |
| 20260507044054 | 58 | 38 | 3.5 | 6.1 | 0.00 | 0.10 | 0.10 | 86 | 1016.2 |
| 20260507043830 | 58 | 54 | 2.6 | 7.8 | 0.00 | 0.10 | 0.10 | 86 | 1017.3 |
| 20260507043548 | 58 | 78 | 3.5 | 7.8 | 0.00 | 0.10 | 0.10 | 85 | 1016.2 |
| 20260507043324 | 59 | 32 | 2.6 | 7.8 | 0.00 | 0.10 | 0.10 | 85 | 1017.2 |
| 20260507043023 | 58 | 44 | 2.6 | 6.1 | 0.00 | 0.10 | 0.10 | 86 | 1016.2 |
| 20260507042821 | 59 | 19 | 2.6 | 6.1 | 0.00 | 0.10 | 0.10 | 86 | 1017.2 |
| 20260507042507 | 58 | 43 | 2.6 | 7.8 | 0.00 | 0.10 | 0.10 | 85 | 1016.2 |
| 20260507042339 | 59 | 36 | 3.5 | 7.8 | 0.00 | 0.10 | 0.10 | 85 | 1017.3 |
| 20260507042038 | 58 | 64 | 3.5 | 7.8 | 0.00 | 0.10 | 0.10 | 85 | 1016.2 |
| 20260507041815 | 59 | 70 | 3.5 | 7.8 | 0.00 | 0.10 | 0.10 | 85 | 1017.3 |
| 20260507041528 | 58 | 60 | 2.6 | 6.1 | 0.00 | 0.10 | 0.10 | 85 | 1016.1 |
| 20260507041331 | 59 | 66 | 2.6 | 7.8 | 0.00 | 0.10 | 0.10 | 85 | 1017.1 |
| 20260507041013 | 58 | 56 | 1.7 | 7.8 | 0.00 | 0.10 | 0.10 | 85 | 1016.0 |
| 20260507040826 | 59 | 54 | 3.5 | 9.6 | 0.00 | 0.10 | 0.10 | 85 | 1017.0 |
| 20260507040507 | 58 | 58 | 2.6 | 10.4 | 0.00 | 0.10 | 0.10 | 85 | 1015.8 |
| 20260507040325 | 59 | 51 | 3.5 | 10.4 | 0.00 | 0.10 | 0.10 | 85 | 1016.9 |
| 20260507040058 | 59 | 62 | 5.2 | 10.4 | 0.00 | 0.10 | 0.10 | 85 | 1015.6 |
| 20260507035821 | 59 | 61 | 4.3 | 10.4 | 0.00 | 0.10 | 0.10 | 85 | 1016.7 |
| 20260507035548 | 59 | 49 | 3.5 | 8.7 | 0.00 | 0.10 | 0.10 | 85 | 1015.5 |
| 20260507035316 | 59 | 54 | 5.2 | 8.7 | 0.00 | 0.10 | 0.10 | 85 | 1016.6 |
| 20260507035042 | 59 | 48 | 3.5 | 8.7 | 0.00 | 0.10 | 0.10 | 85 | 1015.5 |
| 20260507034851 | 59 | 58 | 4.3 | 8.7 | 0.00 | 0.10 | 0.10 | 85 | 1016.6 |
| 20260507034508 | 59 | 61 | 2.6 | 7.8 | 0.00 | 0.10 | 0.10 | 85 | 1015.7 |
| 20260507034347 | 59 | 67 | 3.5 | 7.8 | 0.00 | 0.10 | 0.10 | 85 | 1016.8 |
| 20260507034038 | 59 | 48 | 3.5 | 7.8 | 0.00 | 0.10 | 0.10 | 85 | 1015.7 |
| 20260507033823 | 59 | 50 | 4.3 | 8.7 | 0.00 | 0.10 | 0.10 | 85 | 1016.9 |
| 20260507033530 | 59 | 70 | 3.5 | 8.7 | 0.00 | 0.10 | 0.10 | 85 | 1015.8 |
| 20260507033320 | 60 | 52 | 3.5 | 8.7 | 0.00 | 0.10 | 0.10 | 85 | 1017.0 |
| 20260507033024 | 59 | 60 | 3.5 | 7.8 | 0.00 | 0.10 | 0.10 | 85 | 1015.8 |
| 20260507032815 | 60 | 80 | 4.3 | 7.8 | 0.00 | 0.10 | 0.10 | 84 | 1016.9 |
| 20260507032510 | 59 | 51 | 2.6 | 8.7 | 0.00 | 0.10 | 0.10 | 84 | 1015.8 |
| 20260507032331 | 60 | 61 | 3.5 | 8.7 | 0.00 | 0.10 | 0.10 | 84 | 1017.0 |
| 20260507032006 | 59 | 18 | 3.5 | 8.7 | 0.00 | 0.10 | 0.10 | 84 | 1015.7 |
| 20260507031827 | 60 | 49 | 5.2 | 8.7 | 0.00 | 0.10 | 0.10 | 84 | 1016.8 |
| 20260507031554 | 59 | 25 | 3.5 | 7.8 | 0.00 | 0.10 | 0.10 | 84 | 1015.6 |
| 20260507031322 | 60 | 39 | 3.5 | 7.0 | 0.00 | 0.10 | 0.10 | 84 | 1016.7 |
| 20260507031048 | 60 | 33 | 3.5 | 7.0 | 0.00 | 0.10 | 0.10 | 84 | 1015.7 |
| 20260507030816 | 60 | 45 | 3.5 | 7.0 | 0.00 | 0.10 | 0.10 | 84 | 1016.8 |
| 20260507030539 | 60 | 8 | 2.6 | 8.7 | 0.00 | 0.10 | 0.10 | 84 | 1015.6 |
| 20260507030352 | 60 | 29 | 3.5 | 8.7 | 0.00 | 0.10 | 0.10 | 84 | 1017.0 |
| 20260507030005 | 60 | 23 | 3.5 | 8.7 | 0.00 | 0.10 | 0.10 | 84 | 1015.8 |
| 20260507025846 | 61 | 18 | 4.3 | 8.7 | 0.00 | 0.10 | 0.10 | 84 | 1016.9 |
| 20260507025538 | 60 | 18 | 2.6 | 7.8 | 0.00 | 0.10 | 0.10 | 84 | 1015.9 |
| 20260507025321 | 61 | 4 | 3.5 | 7.8 | 0.00 | 0.10 | 0.10 | 84 | 1017.1 |
| 20260507025030 | 60 | 23 | 2.6 | 7.8 | 0.00 | 0.10 | 0.10 | 84 | 1015.9 |
| 20260507024816 | 61 | 12 | 3.5 | 7.8 | 0.00 | 0.10 | 0.10 | 84 | 1017.1 |
| 20260507024512 | 60 | 359 | 3.5 | 7.8 | 0.00 | 0.10 | 0.10 | 84 | 1015.9 |
| 20260507024350 | 61 | 354 | 3.5 | 7.8 | 0.00 | 0.10 | 0.10 | 84 | 1017.2 |
| 20260507024049 | 60 | 359 | 3.5 | 7.8 | 0.00 | 0.10 | 0.10 | 84 | 1015.8 |
| 20260507023845 | 61 | 359 | 2.6 | 7.8 | 0.00 | 0.10 | 0.10 | 84 | 1017.0 |
| 20260507023527 | 60 | 354 | 3.5 | 7.8 | 0.00 | 0.10 | 0.10 | 84 | 1015.8 |
| 20260507023341 | 61 | 16 | 2.6 | 7.8 | 0.00 | 0.10 | 0.10 | 85 | 1016.9 |
| 20260507023044 | 60 | 32 | 1.7 | 7.8 | 0.00 | 0.10 | 0.10 | 85 | 1015.8 |
| 20260507022815 | 61 | 14 | 3.5 | 7.8 | 0.00 | 0.10 | 0.10 | 85 | 1016.9 |
| 20260507022538 | 60 | 26 | 0.9 | 4.3 | 0.00 | 0.10 | 0.10 | 85 | 1015.7 |
| 20260507022332 | 61 | 10 | 2.6 | 4.3 | 0.00 | 0.10 | 0.10 | 85 | 1016.9 |
| 20260507022031 | 60 | 31 | 0.9 | 4.3 | 0.00 | 0.10 | 0.10 | 85 | 1015.8 |
| 20260507021828 | 61 | 346 | 1.7 | 5.2 | 0.00 | 0.10 | 0.10 | 85 | 1016.9 |
| 20260507021514 | 60 | 359 | 1.7 | 5.2 | 0.00 | 0.10 | 0.10 | 85 | 1015.6 |
| 20260507021325 | 61 | 21 | 2.6 | 5.2 | 0.00 | 0.10 | 0.10 | 85 | 1016.7 |
| 20260507021010 | 60 | 10 | 2.6 | 5.2 | 0.00 | 0.10 | 0.10 | 85 | 1015.4 |
| 20260507020821 | 61 | 16 | 2.6 | 5.2 | 0.00 | 0.10 | 0.10 | 85 | 1016.6 |
| 20260507020600 | 60 | 15 | 1.7 | 7.0 | 0.00 | 0.10 | 0.10 | 85 | 1015.4 |
| 20260507020317 | 61 | 35 | 1.7 | 7.0 | 0.00 | 0.10 | 0.10 | 85 | 1016.6 |
| 20260507020106 | 60 | 16 | 2.6 | 7.0 | 0.00 | 0.10 | 0.10 | 85 | 1015.3 |
| 20260507015833 | 61 | 359 | 3.5 | 7.0 | 0.00 | 0.10 | 0.10 | 85 | 1016.5 |
| 20260507015550 | 60 | 11 | 1.7 | 7.0 | 0.00 | 0.10 | 0.10 | 85 | 1015.1 |
| 20260507015330 | 61 | 22 | 3.5 | 7.0 | 0.00 | 0.10 | 0.10 | 85 | 1016.3 |
| 20260507015044 | 60 | 39 | 1.7 | 5.2 | 0.00 | 0.10 | 0.10 | 85 | 1015.1 |
| 20260507014827 | 61 | 359 | 2.6 | 5.2 | 0.00 | 0.10 | 0.10 | 85 | 1016.5 |
| 20260507014539 | 60 | 28 | 1.7 | 5.2 | 0.00 | 0.10 | 0.10 | 85 | 1015.2 |
| 20260507014323 | 61 | 10 | 2.6 | 5.2 | 0.00 | 0.10 | 0.10 | 85 | 1016.5 |
| 20260507014026 | 60 | 359 | 2.6 | 5.2 | 0.00 | 0.10 | 0.10 | 85 | 1015.1 |
| 20260507013820 | 61 | 19 | 2.6 | 5.2 | 0.00 | 0.10 | 0.10 | 85 | 1016.4 |
| 20260507013520 | 60 | 53 | 0.9 | 5.2 | 0.00 | 0.10 | 0.10 | 85 | 1014.8 |
| 20260507013317 | 61 | 53 | 1.7 | 5.2 | 0.00 | 0.10 | 0.10 | 85 | 1016.1 |
| 20260507013013 | 60 | 35 | 0.9 | 5.2 | 0.00 | 0.10 | 0.10 | 84 | 1014.7 |
| 20260507012832 | 61 | 27 | 0.9 | 5.2 | 0.00 | 0.10 | 0.10 | 84 | 1016.0 |
| 20260507012607 | 60 | 39 | 2.6 | 5.2 | 0.00 | 0.10 | 0.10 | 84 | 1014.8 |
| 20260507012328 | 61 | 25 | 2.6 | 5.2 | 0.00 | 0.10 | 0.10 | 84 | 1016.1 |
| 20260507012054 | 60 | 41 | 1.7 | 5.2 | 0.00 | 0.10 | 0.10 | 84 | 1014.6 |
| 20260507011844 | 61 | 34 | 1.7 | 5.2 | 0.00 | 0.10 | 0.10 | 84 | 1016.1 |
| 20260507011532 | 60 | 33 | 2.6 | 4.3 | 0.00 | 0.10 | 0.10 | 84 | 1014.7 |
| 20260507011320 | 61 | 73 | 2.6 | 4.3 | 0.00 | 0.10 | 0.10 | 84 | 1016.0 |
| 20260507011021 | 60 | 41 | 0.9 | 7.0 | 0.00 | 0.10 | 0.10 | 84 | 1014.5 |
| 20260507010816 | 61 | 51 | 2.6 | 7.0 | 0.00 | 0.10 | 0.10 | 84 | 1015.7 |
| 20260507010518 | 60 | 4 | 2.6 | 7.0 | 0.00 | 0.10 | 0.10 | 84 | 1014.1 |
| 20260507010332 | 61 | 33 | 3.5 | 6.1 | 0.00 | 0.10 | 0.10 | 84 | 1015.3 |
| 20260507010111 | 60 | 18 | 2.6 | 6.1 | 0.00 | 0.10 | 0.10 | 84 | 1013.7 |
| 20260507005829 | 61 | 8 | 4.3 | 7.0 | 0.00 | 0.10 | 0.10 | 84 | 1015.1 |
| 20260507005552 | 61 | 9 | 2.6 | 6.1 | 0.00 | 0.10 | 0.10 | 84 | 1013.8 |
| 20260507005324 | 61 | 34 | 2.6 | 6.1 | 0.00 | 0.10 | 0.10 | 84 | 1015.1 |
| 20260507005046 | 61 | 24 | 2.6 | 6.1 | 0.00 | 0.10 | 0.10 | 84 | 1013.6 |
| 20260507004821 | 61 | 32 | 1.7 | 6.1 | 0.00 | 0.10 | 0.10 | 84 | 1015.1 |
| 20260507004541 | 61 | 41 | 1.7 | 6.1 | 0.00 | 0.10 | 0.10 | 84 | 1013.6 |
| 20260507004318 | 61 | 28 | 2.6 | 8.7 | 0.00 | 0.10 | 0.10 | 84 | 1015.1 |
| 20260507004030 | 61 | 27 | 2.6 | 8.7 | 0.00 | 0.10 | 0.10 | 84 | 1013.5 |
| 20260507003815 | 61 | 50 | 4.3 | 8.7 | 0.00 | 0.10 | 0.10 | 83 | 1015.0 |
| 20260507003516 | 61 | 359 | 1.7 | 7.0 | 0.00 | 0.10 | 0.10 | 84 | 1013.5 |
| 20260507003331 | 61 | 20 | 3.5 | 7.0 | 0.00 | 0.10 | 0.10 | 84 | 1014.9 |
| 20260507003012 | 61 | 4 | 2.6 | 5.2 | 0.00 | 0.10 | 0.10 | 84 | 1013.5 |
| 20260507002828 | 61 | 19 | 2.6 | 7.0 | 0.00 | 0.10 | 0.10 | 84 | 1014.8 |
| 20260507002504 | 61 | 14 | 1.7 | 7.0 | 0.00 | 0.10 | 0.10 | 84 | 1013.4 |
| 20260507002324 | 62 | 25 | 2.6 | 7.0 | 0.00 | 0.10 | 0.10 | 84 | 1014.7 |
| 20260507002101 | 61 | 43 | 2.6 | 7.0 | 0.00 | 0.10 | 0.10 | 84 | 1013.3 |
| 20260507001820 | 62 | 19 | 2.6 | 7.0 | 0.00 | 0.10 | 0.10 | 84 | 1014.8 |
| 20260507001558 | 61 | 36 | 2.6 | 7.0 | 0.00 | 0.10 | 0.10 | 84 | 1013.4 |
| 20260507001317 | 62 | 27 | 3.5 | 7.0 | 0.00 | 0.10 | 0.10 | 84 | 1014.8 |
| 20260507001046 | 61 | 4 | 2.6 | 7.0 | 0.00 | 0.10 | 0.10 | 84 | 1013.3 |
| 20260507000832 | 61 | 9 | 3.5 | 7.0 | 0.00 | 0.10 | 0.10 | 84 | 1014.8 |
| 20260507000536 | 61 | 15 | 3.5 | 8.7 | 0.00 | 0.10 | 0.10 | 84 | 1013.4 |
| 20260507000328 | 62 | 17 | 3.5 | 8.7 | 0.00 | 0.10 | 0.10 | 84 | 1014.7 |
| 20260507000030 | 61 | 11 | 3.5 | 8.7 | 0.00 | 0.10 | 0.10 | 84 | 1013.2 |
| 20260506235824 | 62 | 19 | 4.3 | 8.7 | 0.00 | 0.10 | 0.10 | 84 | 1014.7 |
| 20260506235524 | 61 | 354 | 3.5 | 7.0 | 0.00 | 0.10 | 0.10 | 84 | 1013.2 |
| 20260506235319 | 62 | 29 | 4.3 | 7.0 | 0.00 | 0.10 | 0.10 | 84 | 1014.6 |